Regional Weather Roundup
Issued by NWS

Home | Current Version | Previous Version | Text Only | Print | Product List | Glossary On
Versions: 1 2 3 4 5 6 7 8 9 10 11 12 13 14 15 16 17 18 19 20 21 22 23 24 25 26 27 28 29 30 31 32 33 34 35 36 37 38 39 40 41 42 43 44 45 46 47 48 49 50
723
ASUS43 KLOT 221012
RWRIL

ILLINOIS REGIONAL WEATHER ROUNDUP
NATIONAL WEATHER SERVICE CHICAGO/ROMEOVILLE IL
400 AM CST SUN JAN 22 2017

NOTE: "FAIR" INDICATES FEW OR NO CLOUDS BELOW 12,000 FEET WITH NO
SIGNIFICANT WEATHER AND/OR OBSTRUCTIONS TO VISIBILITY.

* THESE STATIONS ARE NOT UNDER NWS QUALITY CONTROL. THEY ALSO MAY NOT
  REPORT WEATHER SUCH AS PRECIPITATION OR FOG.

ILZ001-002-007-009-015-016-024-221100-
NORTHWEST ILLINOIS

CITY           SKY/WX    TMP DP  RH WIND       PRES   REMARKS
MOLINE         PTCLDY    31  29  92 CALM      29.57F FOG
STERLING*      FOG       30  30 100 CALM      29.58F VSB 1/4
SAVANNA*       FOG       29  29  99 CALM      29.59S VSB 1/4
$$

ILZ003-004-008-010-011-017-018-221100-
NORTH CENTRAL ILLINOIS

CITY           SKY/WX    TMP DP  RH WIND       PRES   REMARKS
ROCKFORD       FOG       34  33  96 CALM      29.60S VSB 1/4
FREEPORT*      FOG       32  32 100 CALM      29.60F VSB<1/4
ROCHELLE*      FOG       33  33 100 CALM      29.58F VSB<1/4
DE KALB*       FOG       35  34  99 CALM      29.58F VSB 1/2
$$

ILZ005-006-012>014-019>023-221100-
NORTHEAST ILLINOIS

CITY           SKY/WX    TMP DP  RH WIND       PRES   REMARKS
CHICAGO-OHARE  CLOUDY    39  39 100 CALM      29.58R FOG
CHICAGO-MIDWAY CLOUDY    42  40  92 CALM      29.58S FOG
AURORA         FOG       33  31  92 CALM      29.58F VSB 1/4
LANSING*       SNOW      37  37 100 CALM      29.59S VSB<1/4
JOLIET*        FOG       39  39 100 CALM      29.58F VSB<1/4
WAUKEGAN       FOG       39  38  96 CALM      29.58R VSB 1/4
DUPAGE AIRPORT FOG       33  31  92 NE3       29.57S VSB 1/4
KANKAKEE*      FOG       38  37  98 CALM      29.57F VSB 1/2
WHEELING       CLOUDY    40  39  97 CALM      29.59S FOG
MORRIS*        FOG       35  34  98 CALM      29.57F VSB 1/4
ROMEOVILLE*    FOG       37  37 100 CALM      29.57F VSB 1/4
NORTHERLY ISL    N/A     37  36  96 S2          N/A
$$

LMZ740>746-221100-
SOUTHERN LAKE MICHIGAN

STATION/POSITION SKY/WX   TEMP    WIND        PRES    VSBY  WAVE
                          AIR SEA DIR/SP/G                  HT/PER
                          (F)     (DEG/KT/KT) (MB)    (MI)  (FT/S)
HARRISON CRIB              40      80/  5/  5   N/A
BURNHAM HARBOR             37      CALM  /  3   N/A
CALUMET HARBOR             36      10/  2/  2 1001.4S
BURNS HARBOR               35      70/  5/  6 1002.7F
MICHIGAN CITY              35      30/  7/  7   N/A
$$

ILZ025>027-034>036-040-047-049-050-058-095>099-221100-
WEST-CENTRAL ILLINOIS

CITY           SKY/WX    TMP DP  RH WIND       PRES   REMARKS
QUINCY         CLOUDY    41  39  93 N7        29.57R FOG
GALESBURG*     PTCLDY    32  32 100 N5        29.57S FOG     WCI  27
MACOMB*        FOG       34  34 100 CALM      29.59R VSB 1/2
JACKSONVILLE*  CLOUDY    41  41  98 N8        29.55R FOG
PITTSFIELD*    CLOUDY    44  43  97 NW7       29.58R FOG
$$

ILZ028>032-037-038-041>044-048-051>054-059>061-221100-
CENTRAL ILLINOIS

CITY           SKY/WX    TMP DP  RH WIND       PRES   REMARKS
PONTIAC        DRZL/FOG  40  40 100 N12       29.57S VSB 1/4
BLOOMINGTON    LGT RAIN  37  36  96 NE12      29.56S VSB 1/4 WCI  29
DECATUR        PTCLDY    43  42  97 NE9       29.52S
PEORIA         FOG       41  41 100 NE8       29.57R VSB 1
LACON*         FOG       36  36 100 N3        29.56S VSB 1/4
LINCOLN*       FOG       40  40 100 N12       29.55S VSB 1/2
SPRINGFIELD    CLEAR     42  40  92 N7        29.54S FOG
TAYLORVILLE    PTCLDY    41  40  96 N6        29.52R
$$

ILZ033-039-045-046-055>057-062-063-221100-
EAST-CENTRAL ILLINOIS

CITY           SKY/WX    TMP DP  RH WIND       PRES   REMARKS
CHAMPAIGN      PTCLDY    47  43  86 N10       29.53R
RANTOUL*       CLEAR     45  44  95 NE8       29.54R
MATTOON        FOG       43  42  97 NE3       29.51S VSB 1/4
PARIS*           N/A     44  44 100 E3        29.54R FOG
$$

ILZ079-100>102-221100-
SOUTHWEST ILLINOIS

CITY           SKY/WX    TMP DP  RH WIND       PRES   REMARKS
ALTON          PTCLDY    44  42  90 NW5       29.51R
BELLEVILLE     FOG       46  46 100 CALM      29.47F VSB 1
CAHOKIA*       PTCLDY    48  44  86 N9        29.49S
SPARTA*        CLOUDY    47  47  99 CALM      29.49S
$$

ILZ064>066-069>071-074>076-080>082-084>086-088>090-092>094-221100-
SOUTH-CENTRAL ILLINOIS

CITY           SKY/WX    TMP DP  RH WIND       PRES   REMARKS
CARBONDALE     MOCLDY    46  46 100 CALM      29.49S
CAIRO*         CLOUDY    50  49  97 N5        29.46F
EFFINGHAM*     CLOUDY    50  50 100 E5        29.52S
MARION         MOCLDY    50  50 100 CALM      29.49R
MT. VERNON     CLOUDY    44  43  96 CALM      29.49F
CENTRALIA*     CLOUDY    47  47 100 E5        29.49R
SALEM*         PTCLDY    53  49  89 E3        29.50S
METROPOLIS*    CLOUDY    52  49  90 CALM      29.48F
$$

ILZ067-068-072-073-078-083-087-091-221100-
SOUTHEAST ILLINOIS

CITY           SKY/WX    TMP DP  RH WIND       PRES   REMARKS
LAWRENCEVILLE  CLOUDY    48  47  96 CALM      29.52R
FLORA*         PTCLDY    51  48  91 E3        29.51S
FAIRFIELD*     CLOUDY    49  48  96 CALM      29.49S
HARRISBURG*    CLOUDY    49  48  95 CALM      29.50S
ROBINSON*      CLOUDY    44  44 100 CALM      29.53S
CARMI*         CLOUDY    46  45  98 CALM      29.49F
$$

ABBREVIATIONS USED IN REMARKS
   TC - TEMPERATURE IN CELSIUS
  WCI - WIND CHILL INDEX
   HX - HEAT INDEX
  VSB - VISIBILITY
$$





USA.gov is the U.S. government's official web portal to all federal, state and local government web resources and services.